Zurück zum Katalog

STARLINK-5324

AktivKommunikationVLEO
NORAD 55677·PAYLOAD·🇺🇸 United States

Gestartet Feb 17, 2023 von Vandenberg Space Force Base

Loading…

Nächste Überflüge (nächste 24 Stunden)

TLE

AktuellSource: CelesTrak SupGP

Epoche: Sep 14, 2026, 21:51 UTC

1 55677C 23021BB  26257.91090278 -.00026681  00000+0 -22359-2 0  2570
2 55677  70.0030  27.3178 0003118 273.4130  35.4323 14.98344811    17

Verfolge STARLINK-5324 in Echtzeit mit AllMySat

Download on the App Store